Weather History for KMTC - March, 2013

Change the Weather History Date:

Sunday, March 3, 2013

  Actual Average Record
Temperature  
Mean Temperature 23 °F -  
Max Temperature 26 °F 36 °F 66 °F (1974)
Min Temperature 19 °F 23 °F -7 °F (2003)
Degree Days  
Heating Degree Days 42    
Moisture  
Dew Point 15 °F    
Average Humidity 71    
Maximum Humidity 86    
Minimum Humidity 58    
Precipitation  
Precipitation 0.00 in - - ()
Sea Level Pressure  
Sea Level Pressure 30.04 in    
Wind  
Wind Speed 9 mph (NW)    
Max Wind Speed 16 mph    
Max Gust Speed 22 mph    
Visibility 10 miles    
Events Snow    
Averages and records for this station are not official NWS values.
T = Trace of Precipitation, MM = Missing Value Source: NWS Daily Summary

Daily Weather History Graph

Daily Weather History Graph

Search for Another Location

Airport or City:

Trip Planner

Search our weather history database for the weather conditions in past years. The results will help you decide how hot, cold, wet, or windy it might be!

Date:

Astronomy

Mar. 03, 2013 Rise Set
Actual Time 7:03 AM EST 6:23 PM EST
Civil Twilight 6:35 AM EST 6:52 PM EST
Nautical Twilight 6:02 AM EST 7:24 PM EST
Astronomical Twilight 5:29 AM EST 7:57 PM EST
Moon 12:09 AM EST (3/3) 10:08 AM EST (3/3)
Length of Visible Light 12h 16m
Length of Day
11h 20m
Waning Gibbous, 64% of the Moon is Illuminated
Mar 3
Waning Gibbous
Mar 4
Last Quarter
Mar 11
New
Mar 19
First Quarter
Mar 27
Full

Hourly Weather History & Observations

Time (EST) Temp. Windchill Dew Point Humidity Pressure Visibility Wind Dir Wind Speed Gust Speed Precip Events Conditions
12:18 AM 23.0 °F 14.7 °F 17.6 °F 80% 30.06 in 10.0 mi NW 6.9 mph - N/A Snow Light Snow
12:30 AM 23.0 °F 14.7 °F 17.6 °F 80% 30.06 in 10.0 mi NW 6.9 mph - N/A Snow Light Snow
12:37 AM 23.0 °F 13.9 °F 17.6 °F 80% 30.06 in 10.0 mi NW 8.1 mph - N/A   Overcast
12:43 AM 23.0 °F 15.8 °F 17.6 °F 80% 30.06 in 10.0 mi NW 5.8 mph - N/A Snow Light Snow
12:55 AM 23.5 °F 15.4 °F 16.9 °F 76% 30.06 in 10.0 mi NW 6.9 mph - 0.00 in Snow Light Snow
1:22 AM 23.0 °F 13.9 °F 15.8 °F 74% 30.06 in 10.0 mi NW 8.1 mph - N/A   Overcast
1:32 AM 23.0 °F 12.4 °F 15.8 °F 74% 30.06 in 10.0 mi NW 10.4 mph - N/A   Overcast
1:42 AM 23.0 °F 12.4 °F 15.8 °F 74% 30.06 in 10.0 mi NNW 10.4 mph - N/A Snow Light Snow
1:55 AM 23.2 °F 14.1 °F 16.0 °F 74% 30.06 in 10.0 mi NW 8.1 mph - 0.00 in Snow Light Snow
2:55 AM 22.6 °F 12.6 °F 17.1 °F 79% 30.04 in 10.0 mi NW 9.2 mph - 0.00 in Snow Light Snow
3:55 AM 22.3 °F 13.9 °F 16.2 °F 77% 30.03 in 10.0 mi NW 6.9 mph - 0.00 in Snow Light Snow
4:14 AM 23.0 °F 13.1 °F 15.8 °F 74% 30.02 in 10.0 mi WNW 9.2 mph - N/A   Overcast
4:54 AM 23.0 °F 12.4 °F 15.8 °F 74% 30.02 in 10.0 mi WNW 10.4 mph - N/A Snow Light Snow
4:55 AM 22.5 °F 12.4 °F 14.9 °F 73% 30.02 in 10.0 mi WNW 9.2 mph - 0.00 in Snow Light Snow
5:02 AM 23.0 °F 13.9 °F 14.0 °F 68% 30.02 in 10.0 mi WNW 8.1 mph - N/A   Overcast
5:11 AM 23.0 °F 11.7 °F 14.0 °F 68% 30.03 in 10.0 mi WNW 11.5 mph - N/A Snow Light Snow
5:25 AM 23.0 °F 11.7 °F 14.0 °F 68% 30.03 in 10.0 mi WNW 11.5 mph - N/A   Overcast
5:28 AM 23.0 °F 12.4 °F 15.8 °F 74% 30.03 in 10.0 mi WNW 10.4 mph - N/A Snow Light Snow
5:32 AM 23.0 °F 13.9 °F 14.0 °F 68% 30.03 in 10.0 mi NW 8.1 mph - N/A   Overcast
5:36 AM 23.0 °F 13.9 °F 14.0 °F 68% 30.03 in 10.0 mi WNW 8.1 mph - N/A Snow Light Snow
5:55 AM 22.6 °F 11.9 °F 15.1 °F 73% 30.03 in 10.0 mi WNW 10.4 mph - 0.00 in Snow Light Snow
6:07 AM 23.0 °F 14.7 °F 15.8 °F 74% 30.04 in 10.0 mi NW 6.9 mph - N/A   Overcast
6:21 AM 23.0 °F 13.1 °F 14.0 °F 68% 30.04 in 10.0 mi WNW 9.2 mph - N/A Snow Light Snow
6:27 AM 23.0 °F 13.1 °F 14.0 °F 68% 30.04 in 10.0 mi WNW 9.2 mph - N/A   Overcast
6:30 AM 23.0 °F 12.4 °F 14.0 °F 68% 30.04 in 10.0 mi WNW 10.4 mph - N/A Snow Light Snow
6:53 AM 23.0 °F 14.7 °F 14.0 °F 68% 30.04 in 10.0 mi NW 6.9 mph - N/A   Overcast
6:55 AM 22.5 °F 13.2 °F 14.9 °F 73% 30.04 in 10.0 mi NW 8.1 mph - 0.00 in   Overcast
6:58 AM 23.0 °F 12.4 °F 15.8 °F 74% 30.04 in 10.0 mi NW 10.4 mph - N/A Snow Light Snow
7:01 AM 23.0 °F 12.4 °F 14.0 °F 68% 30.04 in 10.0 mi NW 10.4 mph - N/A   Overcast
7:03 AM 23.0 °F 11.7 °F 14.0 °F 68% 30.04 in 10.0 mi WNW 11.5 mph - N/A Snow Light Snow
7:13 AM 21.2 °F 9.5 °F 14.0 °F 74% 30.04 in 10.0 mi NW 11.5 mph - N/A   Overcast
7:15 AM 21.2 °F 9.5 °F 14.0 °F 74% 30.04 in 10.0 mi NW 11.5 mph - N/A   Overcast
7:16 AM 21.2 °F 10.1 °F 14.0 °F 74% 30.04 in 10.0 mi NW 10.4 mph - N/A Snow Light Snow
7:44 AM 21.2 °F 9.5 °F 14.0 °F 74% 30.05 in 10.0 mi WNW 11.5 mph - N/A Snow Light Snow
7:55 AM 21.4 °F 11.1 °F 14.4 °F 74% 30.05 in 10.0 mi NW 9.2 mph - 0.00 in Snow Light Snow
8:03 AM 21.2 °F 10.9 °F 14.0 °F 74% 30.05 in 10.0 mi WNW 9.2 mph - N/A   Overcast
8:41 AM 21.2 °F 10.1 °F 14.0 °F 74% 30.05 in 10.0 mi NW 10.4 mph - N/A   Overcast
8:54 AM 21.2 °F 10.1 °F 14.0 °F 74% 30.06 in 10.0 mi WNW 10.4 mph - N/A   Mostly Cloudy
8:55 AM 20.7 °F 9.5 °F 13.1 °F 73% 30.06 in 10.0 mi WNW 10.4 mph - 0.00 in   Mostly Cloudy
9:55 AM 23.7 °F 14.0 °F 14.4 °F 67% 30.05 in 10.0 mi NW 9.2 mph - N/A   Clear
10:55 AM 25.7 °F 15.1 °F 14.5 °F 63% 30.05 in 10.0 mi NW 11.5 mph - N/A   Scattered Clouds
10:59 AM 24.8 °F 14.6 °F 14.0 °F 64% 30.04 in 10.0 mi NW 10.4 mph - N/A   Mostly Cloudy
11:48 AM 26.6 °F 15.7 °F 14.0 °F 59% 30.04 in 10.0 mi NW 12.7 mph - N/A   Scattered Clouds
11:55 AM 25.7 °F 15.1 °F 14.4 °F 62% 30.04 in 10.0 mi WNW 11.5 mph - N/A   Scattered Clouds
12:29 PM 26.6 °F 15.2 °F 14.0 °F 59% 30.04 in 10.0 mi NW 13.8 mph - N/A   Mostly Cloudy
12:55 PM 26.2 °F 16.4 °F 13.3 °F 58% 30.03 in 10.0 mi NNW 10.4 mph - N/A   Mostly Cloudy
1:01 PM 26.6 °F 16.8 °F 14.0 °F 59% 30.03 in 10.0 mi WNW 10.4 mph - N/A   Mostly Cloudy
1:55 PM 26.6 °F 16.2 °F 13.6 °F 58% 30.02 in 10.0 mi NW 11.5 mph - N/A   Mostly Cloudy
2:36 PM 26.6 °F 14.7 °F 15.8 °F 64% 30.01 in 10.0 mi NNW 15.0 mph - N/A   Overcast
2:55 PM 25.7 °F 14.0 °F 15.6 °F 66% 30.02 in 10.0 mi NNW 13.8 mph 21.9 mph N/A   Overcast
3:13 PM 24.8 °F 12.4 °F 15.8 °F 69% 30.02 in 10.0 mi NNW 15.0 mph 21.9 mph N/A   Overcast
3:15 PM 24.8 °F 11.9 °F 15.8 °F 69% 30.02 in 10.0 mi North 16.1 mph 21.9 mph N/A   Overcast
3:16 PM 24.8 °F 12.4 °F 15.8 °F 69% 30.02 in 10.0 mi North 15.0 mph 21.9 mph N/A   Overcast
3:18 PM 24.8 °F 11.9 °F 14.0 °F 64% 30.02 in 10.0 mi NNW 16.1 mph 21.9 mph N/A   Overcast
3:25 PM 24.8 °F 11.9 °F 14.0 °F 64% 30.02 in 10.0 mi NNW 16.1 mph - N/A   Overcast
3:36 PM 24.8 °F 12.9 °F 15.8 °F 69% 30.02 in 10.0 mi NNW 13.8 mph - N/A   Overcast
3:44 PM 24.8 °F 13.4 °F 14.0 °F 64% 30.03 in 10.0 mi NNW 12.7 mph - N/A   Overcast
3:55 PM 24.3 °F 13.3 °F 14.9 °F 68% 30.03 in 10.0 mi North 11.5 mph 17.3 mph 0.00 in   Overcast
4:26 PM 23.0 °F 11.7 °F 14.0 °F 68% 30.04 in 10.0 mi North 11.5 mph - N/A   Overcast
4:36 PM 23.0 °F 11.1 °F 14.0 °F 68% 30.04 in 10.0 mi NNW 12.7 mph - N/A   Overcast
4:51 PM 23.0 °F 11.7 °F 14.0 °F 68% 30.04 in 10.0 mi North 11.5 mph - N/A   Overcast
4:55 PM 23.5 °F 13.7 °F 14.2 °F 67% 30.04 in 10.0 mi NNW 9.2 mph - 0.00 in   Overcast
5:55 PM 23.4 °F 15.2 °F 14.0 °F 67% 30.05 in 10.0 mi NNW 6.9 mph - N/A   Overcast
6:24 PM 23.0 °F 17.0 °F 14.0 °F 68% 30.06 in 10.0 mi NNW 4.6 mph - N/A   Scattered Clouds
6:55 PM 21.9 °F - 13.3 °F 69% 30.06 in 10.0 mi Calm Calm - N/A   Clear
7:55 PM 22.3 °F - 13.3 °F 68% 30.07 in 10.0 mi Calm Calm - N/A   Clear
8:55 PM 20.3 °F - 15.4 °F 81% 30.07 in 10.0 mi Calm Calm - N/A   Overcast
9:09 PM 21.2 °F - 15.8 °F 80% 30.07 in 10.0 mi Calm Calm - N/A   Overcast
9:27 PM 21.2 °F - 17.6 °F 86% 30.07 in 10.0 mi Calm Calm - N/A   Overcast
9:55 PM 22.1 °F - 17.4 °F 82% 30.07 in 10.0 mi Calm Calm - N/A   Overcast
10:55 PM 22.8 °F 18.2 °F 16.7 °F 77% 30.06 in 10.0 mi SW 3.5 mph - N/A   Overcast
11:55 PM 19.2 °F 12.5 °F 14.9 °F 83% 30.06 in 10.0 mi NE 4.6 mph - N/A   Clear